QPF
0.08 0.08 0.08 0.09 0.10 0.11 0.11 0.11 0.12 0.10 0.06 0.03 0.03 0.03 0.03 0.03 0.02 0.02 0.01 0.01 0.01 0.01 0.01 0.01 0.01 0.01 0.02 0.04 0.04 0.03 0.03 0.05 0.07 0.09 0.10 0.10 0.11 0.12
0.06 0.06 0.06 0.07 0.08 0.09 0.10 0.10 0.10 0.10 0.07 0.03 0.02 0.02 0.02 0.02 0.02 0.02 0.01 0.01 0.01 0.01 0.01 0.01 0.01 0.02 0.03 0.04 0.03 0.03 0.04 0.06 0.08 0.07 0.06 0.07 0.08 0.09
0.06 0.06 0.05 0.05 0.06 0.07 0.07 0.07 0.07 0.07 0.07 0.04 0.02 0.02 0.03 0.03 0.03 0.02 0.02 0.02 0.01 0.01 0.01 0.01 0.01 0.01 0.02 0.03 0.03 0.04 0.05 0.06 0.05 0.05 0.05 0.06 0.08 0.09
0.06 0.06 0.06 0.06 0.06 0.06 0.07 0.07 0.07 0.06 0.06 0.05 0.03 0.02 0.03 0.03 0.03 0.03 0.03 0.02 0.02 0.02 0.02 0.02 0.02 0.02 0.02 0.03 0.04 0.04 0.05 0.05 0.05 0.06 0.06 0.06 0.07 0.09
0.05 0.06 0.06 0.07 0.08 0.08 0.08 0.08 0.07 0.07 0.07 0.07 0.05 0.03 0.03 0.03 0.03 0.03 0.03 0.03 0.02 0.02 0.02 0.03 0.05 0.05 0.04 0.03 0.03 0.05 0.07 0.06 0.05 0.07 0.08 0.08 0.08 0.08
0.05 0.05 0.06 0.07 0.08 0.08 0.09 0.10 0.10 0.10 0.10 0.09 0.07 0.05 0.04 0.04 0.04 0.04 0.04 0.03 0.03 0.03 0.04 0.05 0.05 0.05 0.03 0.03 0.04 0.06 0.08 0.09 0.08 0.08 0.09 0.10 0.10 0.09
0.05 0.05 0.05 0.06 0.07 0.07 0.08 0.09 0.09 0.11 0.12 0.12 0.10 0.08 0.07 0.06 0.05 0.04 0.04 0.04 0.04 0.04 0.05 0.05 0.05 0.05 0.04 0.04 0.04 0.04 0.06 0.09 0.10 0.10 0.11 0.12 0.13 0.12
0.04 0.04 0.04 0.05 0.06 0.06 0.07 0.07 0.08 0.09 0.09 0.10 0.10 0.09 0.08 0.06 0.05 0.05 0.06 0.07 0.07 0.05 0.05 0.05 0.05 0.05 0.05 0.04 0.05 0.05 0.05 0.08 0.11 0.11 0.11 0.12 0.13 0.14
0.05 0.04 0.04 0.04 0.06 0.07 0.07 0.08 0.08 0.09 0.08 0.07 0.07 0.07 0.06 0.06 0.06 0.07 0.07 0.08 0.07 0.06 0.06 0.09 0.08 0.08 0.07 0.06 0.07 0.07 0.08 0.09 0.12 0.13 0.14 0.14 0.14 0.13
0.04 0.05 0.05 0.05 0.05 0.06 0.07 0.07 0.07 0.08 0.08 0.06 0.06 0.05 0.05 0.06 0.07 0.08 0.09 0.10 0.10 0.09 0.09 0.11 0.10 0.09 0.08 0.08 0.10 0.10 0.10 0.10 0.11 0.13 0.15 0.16 0.14 0.12
0.03 0.03 0.04 0.04 0.06 0.06 0.06 0.06 0.06 0.05 0.05 0.05 0.05 0.05 0.05 0.07 0.08 0.10 0.12 0.14 0.13 0.11 0.10 0.10 0.09 0.09 0.09 0.10 0.10 0.10 0.09 0.11 0.10 0.10 0.13 0.14 0.13 0.11
0.03 0.03 0.03 0.04 0.05 0.06 0.06 0.07 0.08 0.06 0.05 0.05 0.06 0.06 0.06 0.07 0.09 0.09 0.09 0.12 0.12 0.10 0.08 0.08 0.09 0.10 0.11 0.10 0.09 0.09 0.09 0.12 0.13 0.12 0.12 0.12 0.12 0.09
0.05 0.04 0.03 0.04 0.04 0.05 0.06 0.06 0.08 0.07 0.07 0.07 0.07 0.07 0.08 0.09 0.09 0.09 0.09 0.10 0.12 0.10 0.08 0.09 0.10 0.12 0.12 0.12 0.11 0.11 0.10 0.11 0.13 0.13 0.12 0.12 0.11 0.08
0.05 0.05 0.04 0.04 0.04 0.05 0.06 0.06 0.07 0.08 0.09 0.11 0.11 0.10 0.10 0.11 0.11 0.10 0.10 0.11 0.11 0.11 0.10 0.11 0.13 0.14 0.14 0.14 0.14 0.14 0.13 0.13 0.13 0.13 0.11 0.11 0.11 0.09
0.04 0.04 0.04 0.05 0.05 0.06 0.07 0.08 0.08 0.08 0.10 0.11 0.11 0.11 0.10 0.11 0.12 0.13 0.13 0.13 0.13 0.13 0.13 0.13 0.13 0.13 0.14 0.15 0.14 0.14 0.14 0.14 0.13 0.12 0.10 0.09 0.09 0.08
0.04 0.04 0.04 0.05 0.05 0.06 0.06 0.08 0.08 0.09 0.10 0.11 0.11 0.10 0.11 0.13 0.15 0.16 0.16 0.15 0.15 0.16 0.16 0.15 0.15 0.15 0.15 0.15 0.15 0.14 0.13 0.13 0.12 0.11 0.09 0.09 0.08 0.08
0.04 0.04 0.05 0.06 0.06 0.06 0.06 0.07 0.08 0.10 0.10 0.11 0.12 0.13 0.14 0.15 0.17 0.18 0.18 0.18 0.17 0.16 0.17 0.17 0.17 0.17 0.17 0.17 0.17 0.17 0.16 0.14 0.13 0.10 0.09 0.08 0.08 0.08
0.06 0.05 0.05 0.06 0.07 0.06 0.05 0.06 0.07 0.09 0.10 0.11 0.12 0.14 0.15 0.16 0.17 0.17 0.18 0.19 0.19 0.18 0.17 0.17 0.17 0.17 0.18 0.18 0.17 0.16 0.16 0.14 0.13 0.11 0.09 0.08 0.09 0.09
0.07 0.08 0.07 0.07 0.08 0.07 0.06 0.06 0.07 0.09 0.10 0.11 0.12 0.14 0.16 0.17 0.17 0.17 0.18 0.19 0.19 0.19 0.18 0.17 0.16 0.16 0.15 0.14 0.14 0.13 0.13 0.13 0.12 0.11 0.09 0.08 0.08 0.08
0.08 0.10 0.09 0.09 0.09 0.08 0.07 0.07 0.08 0.09 0.10 0.11 0.12 0.14 0.15 0.16 0.16 0.16 0.17 0.18 0.18 0.17 0.16 0.16 0.16 0.15 0.14 0.12 0.12 0.12 0.12 0.11 0.11 0.10 0.09 0.09 0.09 0.09
0.08 0.09 0.10 0.09 0.09 0.08 0.07 0.07 0.08 0.09 0.10 0.11 0.12 0.13 0.14 0.14 0.14 0.13 0.14 0.14 0.14 0.14 0.14 0.14 0.13 0.13 0.12 0.11 0.11 0.12 0.12 0.12 0.10 0.09 0.08 0.08 0.08 0.08
0.07 0.09 0.10 0.10 0.09 0.09 0.08 0.07 0.07 0.08 0.08 0.09 0.10 0.10 0.11 0.11 0.11 0.10 0.10 0.11 0.11 0.11 0.11 0.11 0.10 0.10 0.10 0.09 0.09 0.09 0.09 0.10 0.09 0.08 0.07 0.06 0.05 0.05
0.06 0.07 0.08 0.09 0.10 0.09 0.08 0.08 0.07 0.07 0.07 0.07 0.08 0.08 0.09 0.09 0.09 0.09 0.08 0.08 0.08 0.09 0.09 0.09 0.09 0.09 0.08 0.08 0.07 0.07 0.07 0.07 0.06 0.06 0.07 0.06 0.04 0.03
MSLP
1005.04 1005.14 1005.30 1005.48 1005.63 1005.72 1005.76 1005.76 1005.73 1005.72 1005.77 1005.90 1006.14 1006.50 1006.95 1007.48 1008.06 1008.66 1009.26 1009.85 1010.43 1010.99 1011.56 1012.14 1012.73 1013.35 1013.97 1014.60 1015.21 1015.80 1016.33 1016.81 1017.21 1017.53 1017.75 1017.85 1017.84 1017.71
1004.07 1004.04 1004.10 1004.21 1004.34 1004.46 1004.56 1004.64 1004.72 1004.83 1004.98 1005.21 1005.53 1005.94 1006.43 1006.98 1007.57 1008.17 1008.77 1009.35 1009.92 1010.48 1011.05 1011.63 1012.24 1012.87 1013.52 1014.18 1014.84 1015.47 1016.06 1016.58 1017.03 1017.38 1017.61 1017.72 1017.69 1017.53
1003.30 1003.10 1003.02 1003.01 1003.07 1003.16 1003.27 1003.40 1003.55 1003.75 1004.00 1004.33 1004.74 1005.23 1005.78 1006.39 1007.02 1007.65 1008.28 1008.89 1009.47 1010.05 1010.62 1011.21 1011.81 1012.43 1013.07 1013.73 1014.39 1015.03 1015.64 1016.20 1016.68 1017.06 1017.33 1017.46 1017.45 1017.30
1002.82 1002.43 1002.16 1002.00 1001.92 1001.93 1001.99 1002.11 1002.28 1002.52 1002.84 1003.24 1003.72 1004.28 1004.91 1005.59 1006.29 1007.00 1007.70 1008.37 1009.02 1009.64 1010.25 1010.84 1011.44 1012.04 1012.66 1013.28 1013.91 1014.53 1015.13 1015.69 1016.19 1016.61 1016.92 1017.11 1017.16 1017.06
1002.65 1002.07 1001.61 1001.26 1001.02 1000.88 1000.83 1000.88 1001.00 1001.23 1001.54 1001.96 1002.47 1003.08 1003.77 1004.53 1005.32 1006.13 1006.94 1007.73 1008.48 1009.20 1009.87 1010.51 1011.12 1011.71 1012.29 1012.86 1013.43 1014.00 1014.57 1015.11 1015.62 1016.08 1016.44 1016.70 1016.84 1016.83
1002.74 1002.00 1001.36 1000.82 1000.40 1000.10 999.90 999.81 999.82 999.95 1000.20 1000.56 1001.05 1001.66 1002.38 1003.19 1004.08 1005.00 1005.95 1006.89 1007.80 1008.65 1009.44 1010.16 1010.81 1011.41 1011.96 1012.49 1013.00 1013.51 1014.02 1014.54 1015.04 1015.52 1015.95 1016.29 1016.53 1016.64
1003.01 1002.15 1001.37 1000.68 1000.09 999.61 999.24 998.98 998.83 998.81 998.91 999.16 999.55 1000.10 1000.80 1001.64 1002.59 1003.62 1004.71 1005.82 1006.90 1007.93 1008.87 1009.72 1010.46 1011.10 1011.66 1012.16 1012.62 1013.07 1013.53 1014.01 1014.51 1015.00 1015.48 1015.90 1016.24 1016.48
1003.33 1002.41 1001.54 1000.74 1000.02 999.39 998.86 998.42 998.08 997.87 997.78 997.85 998.10 998.52 999.14 999.95 1000.92 1002.04 1003.25 1004.51 1005.78 1006.99 1008.12 1009.12 1009.98 1010.71 1011.31 1011.82 1012.26 1012.68 1013.10 1013.55 1014.03 1014.53 1015.04 1015.53 1015.96 1016.30
1003.57 1002.64 1001.74 1000.88 1000.09 999.36 998.68 998.09 997.57 997.16 996.86 996.72 996.77 997.02 997.51 998.23 999.17 1000.31 1001.60 1002.99 1004.42 1005.81 1007.12 1008.30 1009.31 1010.16 1010.85 1011.40 1011.87 1012.28 1012.69 1013.12 1013.59 1014.10 1014.63 1015.16 1015.65 1016.07
1003.62 1002.71 1001.83 1000.97 1000.15 999.36 998.61 997.89 997.23 996.63 996.14 995.78 995.61 995.67 995.98 996.56 997.41 998.52 999.83 1001.29 1002.83 1004.38 1005.85 1007.19 1008.37 1009.36 1010.17 1010.83 1011.36 1011.81 1012.24 1012.68 1013.15 1013.66 1014.21 1014.76 1015.29 1015.76
1003.40 1002.53 1001.68 1000.86 1000.06 999.26 998.47 997.69 996.92 996.18 995.52 994.98 994.61 994.46 994.58 994.99 995.72 996.73 998.00 999.47 1001.07 1002.70 1004.30 1005.79 1007.13 1008.28 1009.23 1010.01 1010.65 1011.19 1011.69 1012.17 1012.67 1013.20 1013.76 1014.32 1014.86 1015.36
1002.89 1002.05 1001.24 1000.45 999.68 998.91 998.12 997.31 996.49 995.67 994.90 994.21 993.68 993.36 993.30 993.54 994.11 995.00 996.18 997.60 999.19 1000.86 1002.54 1004.14 1005.60 1006.90 1008.01 1008.94 1009.72 1010.39 1010.99 1011.56 1012.12 1012.68 1013.26 1013.84 1014.39 1014.89
1002.13 1001.29 1000.48 999.72 998.97 998.22 997.45 996.65 995.82 994.97 994.14 993.38 992.74 992.30 992.10 992.20 992.62 993.37 994.44 995.76 997.30 998.95 1000.65 1002.31 1003.88 1005.30 1006.56 1007.65 1008.60 1009.42 1010.16 1010.84 1011.49 1012.12 1012.75 1013.35 1013.91 1014.42
1001.22 1000.32 999.48 998.68 997.92 997.18 996.42 995.64 994.83 994.00 993.18 992.41 991.74 991.24 990.96 990.96 991.27 991.91 992.85 994.06 995.51 997.11 998.78 1000.46 1002.08 1003.60 1004.99 1006.24 1007.35 1008.34 1009.23 1010.05 1010.82 1011.55 1012.24 1012.88 1013.47 1014.00
1000.27 999.27 998.33 997.46 996.65 995.88 995.11 994.34 993.57 992.78 992.01 991.28 990.65 990.17 989.88 989.85 990.10 990.65 991.50 992.61 993.96 995.47 997.09 998.75 1000.39 1001.97 1003.46 1004.83 1006.09 1007.24 1008.29 1009.26 1010.16 1011.00 1011.77 1012.48 1013.11 1013.66
999.43 998.28 997.22 996.23 995.31 994.46 993.66 992.88 992.13 991.41 990.71 990.08 989.53 989.13 988.91 988.92 989.17 989.68 990.47 991.50 992.76 994.18 995.73 997.34 998.96 1000.56 1002.11 1003.57 1004.94 1006.22 1007.42 1008.53 1009.55 1010.50 1011.36 1012.14 1012.83 1013.42
998.83 997.53 996.31 995.17 994.12 993.16 992.28 991.47 990.73 990.05 989.44 988.92 988.51 988.23 988.12 988.21 988.52 989.06 989.83 990.82 992.00 993.34 994.81 996.35 997.93 999.51 1001.07 1002.57 1004.02 1005.39 1006.69 1007.91 1009.04 1010.08 1011.02 1011.87 1012.60 1013.24
998.59 997.16 995.78 994.48 993.28 992.19 991.21 990.34 989.59 988.94 988.41 987.99 987.71 987.58 987.61 987.83 988.23 988.82 989.61 990.58 991.72 993.00 994.38 995.84 997.35 998.88 1000.41 1001.92 1003.39 1004.80 1006.15 1007.43 1008.63 1009.73 1010.73 1011.62 1012.40 1013.06
998.75 997.22 995.72 994.28 992.94 991.72 990.64 989.70 988.90 988.26 987.77 987.44 987.28 987.28 987.44 987.78 988.28 988.95 989.78 990.75 991.86 993.08 994.39 995.77 997.20 998.66 1000.13 1001.59 1003.03 1004.44 1005.80 1007.09 1008.31 1009.43 1010.46 1011.37 1012.17 1012.85
999.31 997.73 996.16 994.64 993.19 991.86 990.67 989.64 988.79 988.13 987.65 987.37 987.27 987.36 987.63 988.07 988.65 989.39 990.26 991.24 992.33 993.50 994.75 996.05 997.39 998.76 1000.15 1001.54 1002.93 1004.29 1005.61 1006.88 1008.07 1009.19 1010.20 1011.11 1011.90 1012.58
1000.20 998.65 997.07 995.50 993.99 992.59 991.32 990.21 989.29 988.58 988.08 987.79 987.72 987.85 988.16 988.65 989.29 990.06 990.94 991.92 992.99 994.12 995.31 996.53 997.80 999.08 1000.39 1001.70 1003.01 1004.30 1005.56 1006.77 1007.92 1008.99 1009.97 1010.85 1011.61 1012.28
1001.32 999.84 998.30 996.76 995.24 993.80 992.48 991.31 990.32 989.55 989.00 988.67 988.56 988.68 988.98 989.47 990.10 990.87 991.74 992.70 993.73 994.82 995.95 997.12 998.31 999.53 1000.76 1001.99 1003.22 1004.44 1005.63 1006.78 1007.86 1008.88 1009.81 1010.64 1011.37 1012.01
1002.53 1001.16 999.72 998.24 996.76 995.33 993.99 992.79 991.75 990.91 990.29 989.89 989.72 989.77 990.02 990.45 991.04 991.75 992.58 993.50 994.49 995.53 996.61 997.73 998.87 1000.03 1001.20 1002.38 1003.55 1004.70 1005.82 1006.91 1007.93 1008.89 1009.77 1010.56 1011.25 1011.86
Thickness
5586 5587 5587 5588 5588 5587 5587 5587 5585 5586 5592 5593 5592 5592 5590 5587 5585 5583 5581 5579 5577 5574 5572 5569 5567 5565 5563 5562 5560 5559 5558 5557 5558 5558 5558 5558 5558 5559
5575 5575 5576 5577 5576 5576 5575 5575 5574 5573 5577 5582 5580 5579 5578 5576 5574 5571 5570 5569 5567 5565 5563 5561 5559 5557 5555 5554 5552 5550 5548 5548 5548 5548 5549 5548 5548 5548
5564 5565 5565 5566 5566 5565 5564 5564 5563 5562 5562 5566 5565 5565 5564 5563 5562 5560 5559 5558 5557 5556 5555 5553 5551 5549 5547 5545 5543 5541 5539 5538 5538 5538 5538 5538 5538 5539
5554 5553 5553 5554 5554 5554 5553 5552 5551 5550 5549 5550 5551 5551 5551 5550 5550 5549 5548 5547 5546 5546 5545 5544 5542 5540 5538 5536 5533 5531 5530 5529 5528 5528 5528 5529 5529 5529
5541 5541 5541 5540 5541 5541 5541 5540 5539 5538 5537 5536 5538 5537 5538 5538 5537 5536 5535 5535 5535 5535 5534 5533 5531 5529 5528 5525 5523 5522 5521 5520 5519 5519 5519 5519 5519 5520
5527 5527 5527 5527 5528 5529 5528 5528 5527 5525 5524 5523 5524 5524 5524 5525 5523 5523 5523 5522 5522 5522 5522 5521 5519 5518 5517 5515 5513 5512 5511 5510 5510 5510 5509 5509 5510 5511
5514 5515 5515 5515 5516 5516 5516 5515 5514 5513 5512 5510 5510 5510 5510 5510 5510 5508 5507 5508 5509 5508 5508 5509 5507 5507 5505 5504 5503 5503 5502 5501 5500 5500 5500 5500 5501 5502
5502 5502 5503 5502 5503 5503 5503 5503 5501 5499 5499 5497 5497 5497 5498 5497 5496 5493 5491 5491 5494 5496 5492 5495 5493 5493 5493 5493 5494 5493 5492 5492 5491 5490 5490 5491 5491 5493
5491 5491 5491 5491 5491 5491 5491 5490 5488 5486 5486 5485 5484 5484 5484 5484 5482 5480 5478 5476 5479 5481 5478 5480 5480 5479 5481 5481 5483 5483 5483 5482 5482 5482 5482 5482 5483 5484
5480 5480 5480 5479 5479 5479 5479 5478 5476 5475 5474 5474 5474 5475 5474 5472 5470 5468 5467 5464 5463 5463 5463 5464 5467 5466 5469 5469 5471 5472 5472 5472 5472 5472 5473 5473 5473 5475
5471 5471 5470 5469 5470 5469 5468 5467 5467 5466 5465 5464 5465 5464 5463 5462 5459 5455 5453 5451 5451 5452 5452 5452 5453 5453 5455 5457 5459 5461 5462 5462 5462 5462 5463 5463 5464 5465
5462 5461 5460 5460 5460 5459 5457 5456 5456 5457 5457 5456 5455 5454 5453 5452 5449 5446 5444 5441 5440 5442 5442 5440 5440 5439 5441 5445 5446 5448 5450 5452 5453 5453 5453 5454 5455 5456
5452 5452 5452 5451 5450 5449 5448 5446 5446 5447 5447 5446 5445 5444 5443 5442 5440 5438 5436 5434 5432 5433 5434 5431 5431 5430 5430 5432 5434 5437 5439 5442 5443 5444 5444 5446 5447 5449
5443 5443 5443 5442 5441 5440 5438 5438 5437 5436 5435 5435 5435 5434 5433 5432 5431 5429 5428 5426 5425 5426 5427 5424 5424 5424 5422 5422 5424 5427 5429 5431 5434 5435 5435 5436 5438 5440
5435 5434 5434 5433 5431 5429 5428 5428 5427 5425 5426 5426 5426 5425 5423 5422 5421 5420 5419 5417 5416 5416 5417 5417 5418 5418 5417 5417 5417 5419 5421 5422 5424 5426 5426 5426 5428 5430
5426 5426 5424 5423 5421 5419 5418 5417 5416 5416 5417 5417 5417 5416 5414 5413 5412 5411 5409 5408 5407 5407 5407 5408 5410 5411 5411 5412 5412 5412 5414 5415 5416 5417 5417 5417 5418 5421
5418 5416 5415 5414 5412 5410 5409 5408 5407 5407 5408 5408 5407 5406 5406 5405 5404 5403 5401 5401 5400 5399 5399 5400 5401 5403 5404 5404 5404 5405 5406 5406 5408 5408 5408 5408 5410 5412
5409 5407 5407 5406 5404 5403 5402 5400 5399 5399 5399 5398 5398 5398 5397 5396 5396 5395 5394 5394 5393 5393 5392 5393 5394 5395 5394 5394 5396 5397 5397 5398 5398 5400 5401 5401 5401 5402
5400 5399 5398 5397 5396 5396 5394 5392 5391 5390 5390 5389 5389 5389 5388 5388 5388 5388 5388 5387 5386 5385 5385 5385 5387 5389 5389 5387 5384 5386 5389 5389 5389 5390 5391 5393 5393 5394
5392 5390 5389 5389 5388 5388 5386 5384 5382 5382 5381 5381 5381 5381 5380 5380 5380 5381 5381 5380 5379 5378 5377 5377 5378 5380 5381 5380 5376 5375 5378 5381 5382 5382 5382 5382 5383 5384
5382 5381 5380 5379 5379 5379 5378 5376 5374 5373 5373 5372 5372 5372 5372 5372 5372 5372 5372 5372 5371 5370 5369 5369 5369 5370 5370 5371 5368 5367 5367 5370 5373 5373 5373 5373 5373 5374
5371 5370 5370 5369 5369 5368 5368 5367 5366 5366 5365 5364 5364 5364 5364 5364 5364 5364 5364 5363 5363 5362 5361 5360 5360 5361 5363 5363 5360 5358 5358 5360 5362 5363 5364 5366 5366 5367
5361 5361 5360 5360 5359 5360 5360 5359 5358 5358 5357 5356 5356 5356 5355 5356 5356 5355 5354 5354 5354 5353 5352 5352 5352 5352 5352 5352 5351 5349 5349 5350 5352 5353 5353 5356 5358 5359